Home > Time Zones > World Clock > Weather > Sweden > Lund > Past weeks

Flag for Sweden Weather past 2 weeks in Lund, Sweden

Now
55 °F

Passing clouds.


Feels Like: 54 °F
Forecast: 54 / 63 °F
Wind: 6 mph from South

Location: Malmo / Sturup

Current Time: Aug 23, 2014 at 1:35:37 AM

Latest Report: Aug 23, 2014 at 1:20 AM


Visibility: N/A

Pressure: 29.71 "Hg

Humidity: 94%

Dew point: 54 °F

Location of LundLocation

Historic Weather in Lund — Graph

°F

Lund temperature yesterday

Maximum temperature yesterday: 64 °F (at 1:20 PM)
Minimum temperature yesterday: 48 °F (at 4:20 AM)
Average temperature yesterday: 58 °F

Past Weeks' High & Low Weather Summary

 TemperatureHumidityPressure
High75 °F (Aug 9, 12:50 PM)100% (Aug 8, 4:20 AM)29.98 "Hg (Aug 8, 4:20 AM)
Low48 °F (Aug 22, 4:20 AM)49% (Aug 20, 2:20 PM)29.39 "Hg (Aug 18, 11:50 AM)
Average61 °F76%29.73 "Hg
* Reported Aug 8 12:20 AM — Aug 23 12:20 AM, Lund, Weather by CustomWeather, © 2014

Note: Actual official high and low records may vary slightly from our data, if they occured in-between our weather recording intervals... More about our weather records

Advertising

Lund weather history for previous 24 hours

 ConditionsComfort  
Time TempWeatherWind HumidityBarometerVisibility
12:20 AM
Aug 23
55 °FPassing clouds.7 mph88%29.74 "HgN/A
11:50 PM
Aug 22
55 °FPassing clouds.8 mph88%29.74 "HgN/A
11:20 PM55 °FPassing clouds.7 mph82%29.74 "HgN/A
10:50 PM55 °FPassing clouds.8 mph82%29.74 "HgN/A
10:20 PM54 °FOvercast.2 mph94%29.74 "HgN/A
9:50 PM55 °FLight rain. Mostly cloudy.6 mph82%29.77 "HgN/A
9:20 PM59 °FPartly sunny.9 mph72%29.77 "HgN/A
8:50 PM61 °FCloudy.12 mph68%29.77 "HgN/A
8:20 PM61 °FSunny.12 mph63%29.77 "Hg10 mi
7:50 PM61 °FSunny.13 mph63%29.77 "Hg10 mi
7:20 PM61 °FSunny.14 mph63%29.77 "Hg10 mi
6:50 PM61 °FSunny.13 mph63%29.77 "Hg10 mi
6:20 PM63 °FSunny.17 mph59%29.77 "Hg10 mi
5:50 PM63 °FSunny.17 mph59%29.77 "Hg10 mi
5:20 PM63 °FScattered clouds.21 mph59%29.77 "HgN/A
4:50 PM63 °FPartly sunny.20 mph59%29.77 "HgN/A
4:20 PM63 °FBroken clouds.21 mph59%29.80 "HgN/A
3:50 PM63 °FBroken clouds.21 mph64%29.80 "HgN/A
3:20 PM64 °FScattered clouds.21 mph60%29.80 "HgN/A
2:50 PM63 °FPartly sunny.20 mph64%29.80 "HgN/A
2:20 PM63 °FScattered clouds.20 mph59%29.80 "HgN/A
1:50 PM63 °FPassing clouds.20 mph64%29.80 "HgN/A
1:20 PM64 °FScattered clouds.20 mph60%29.80 "HgN/A
12:50 PM61 °FScattered clouds.18 mph72%29.80 "HgN/A
12:20 PM63 °FBroken clouds.18 mph68%29.80 "HgN/A
11:50 AM63 °FSunny.17 mph64%29.80 "Hg10 mi
11:20 AM61 °FSunny.16 mph68%29.83 "Hg10 mi
10:50 AM59 °FSunny.12 mph72%29.83 "Hg10 mi
10:20 AM59 °FPassing clouds.15 mph72%29.83 "HgN/A
9:50 AM59 °FScattered clouds.13 mph77%29.83 "HgN/A
9:20 AM59 °FPassing clouds.9 mph82%29.83 "HgN/A
8:50 AM59 °FPassing clouds.7 mph82%29.83 "HgN/A
8:20 AM57 °FScattered clouds.6 mph88%29.83 "HgN/A
7:50 AM55 °FPassing clouds.5 mph88%29.83 "HgN/A
7:20 AM52 °FPassing clouds.6 mph94%29.83 "HgN/A
6:50 AM52 °FClear.5 mph94%29.83 "Hg10 mi
6:20 AM54 °FClear.6 mph88%29.83 "Hg10 mi
5:50 AM50 °FClear.6 mph100%29.83 "Hg10 mi
5:20 AM50 °FClear.5 mph94%29.86 "Hg10 mi
4:20 AM48 °FClear.6 mph94%29.86 "Hg10 mi
3:50 AM50 °FClear.5 mph94%29.86 "Hg10 mi
3:20 AM52 °FClear.5 mph88%29.86 "Hg10 mi
2:50 AM54 °FPassing clouds.7 mph88%29.89 "HgN/A
2:20 AM54 °FPassing clouds.6 mph88%29.89 "HgN/A
1:50 AM54 °FPassing clouds.7 mph82%29.89 "HgN/A
1:20 AM54 °FPassing clouds.8 mph82%29.89 "HgN/A
Weather by CustomWeather, © 2014

See weather overviewHow to use our weather pages